Wind_Speed
27 26 26 27 28 28 29 29 27 25 24 25 27 29 31 34 36 36 36 36 35 36 36 37 38 39 40 41 42 42 43 46 48 50 52 54 56 59 61 63 65 66 67
26 26 26 28 30 30 29 26 24 24 24 26 28 31 33 35 36 36 36 36 37 38 39 40 41 41 42 42 44 45 47 50 53 57 60 61 62 63 66 68 69 70 72
25 25 27 29 30 29 27 25 23 24 25 27 30 33 34 35 35 35 36 37 39 40 41 41 41 42 43 45 47 50 52 55 58 62 66 70 72 72 71 72 74 75 76
25 25 26 28 28 27 25 25 25 26 28 30 32 34 35 35 35 36 38 39 40 41 41 42 43 45 47 49 52 55 59 62 65 68 71 75 79 82 82 82 83 83 83
26 26 26 26 26 25 26 26 28 29 31 32 33 34 35 36 37 38 39 39 40 41 42 44 46 49 52 55 58 62 65 68 72 75 78 80 82 85 89 90 89 90 91
28 27 27 26 26 26 27 28 29 31 32 33 34 35 36 38 38 39 39 40 42 43 46 48 51 54 57 61 65 68 71 74 77 80 83 86 88 91 93 94 94 95 96
28 28 28 27 27 28 29 29 30 31 32 34 35 36 38 38 39 39 40 42 44 47 50 53 57 60 64 67 70 72 75 78 81 84 86 89 92 96 99 101 102 102 102
27 28 28 28 28 29 30 30 31 32 34 35 36 37 37 38 38 40 42 44 47 51 55 58 62 65 68 70 73 76 79 82 85 88 91 94 97 100 103 105 108 109 109
28 29 29 28 29 30 31 31 32 33 35 36 36 36 36 38 39 42 45 48 52 56 60 63 66 68 70 73 76 79 82 86 89 93 96 98 100 102 103 104 105 108 110
28 29 29 29 30 31 31 31 32 33 34 34 35 36 38 40 43 47 51 54 58 61 64 67 69 71 73 76 80 83 86 90 94 97 99 101 103 103 103 103 102 102 103
29 29 29 30 30 31 31 31 32 33 33 34 36 38 41 45 49 53 56 59 62 65 68 70 72 74 77 80 83 86 90 93 96 99 102 103 104 103 102 100 98 96 96
29 29 28 28 29 30 30 32 32 32 34 36 39 42 46 50 54 57 60 63 66 69 71 73 74 77 80 83 86 90 93 95 99 102 103 103 102 100 97 95 92 90 88
28 27 27 28 29 30 31 32 33 35 37 40 44 47 51 55 58 62 65 67 69 72 73 75 77 80 83 86 89 92 95 98 101 102 101 99 97 94 92 90 87 83 80
26 26 27 29 30 31 32 34 35 38 41 45 48 52 56 59 63 66 68 70 72 73 75 76 79 82 85 88 91 94 98 100 100 99 97 94 91 90 89 85 80 77 74
26 27 28 30 31 32 34 36 39 42 45 49 53 56 60 64 67 69 71 72 73 74 75 78 81 84 87 91 94 98 100 99 97 94 90 87 87 87 84 80 76 73 70
27 28 29 30 32 34 37 39 42 45 49 53 57 61 65 67 69 71 71 71 73 75 77 80 83 86 90 94 97 99 98 94 91 87 84 84 85 83 78 73 71 69 67
29 29 30 32 34 36 39 42 45 49 53 58 62 65 68 69 70 70 70 71 73 76 79 83 86 89 93 96 96 95 93 89 86 83 82 83 82 77 72 68 65 62 60
30 31 32 34 36 39 42 45 49 54 58 62 66 68 69 69 69 69 71 73 75 78 82 86 89 92 94 95 94 91 87 83 81 81 83 82 77 71 68 64 60 56 54
31 33 35 36 39 41 45 49 54 58 63 66 69 69 69 68 68 70 72 75 78 81 85 89 92 93 93 92 89 86 81 78 78 80 81 77 71 67 64 61 57 53 51
34 35 36 38 41 45 49 54 58 63 66 69 69 68 68 68 69 71 74 77 81 85 89 92 93 93 90 87 83 80 78 77 77 79 76 71 66 62 59 57 55 52 49
35 36 38 41 45 49 54 59 62 66 69 69 68 67 68 69 71 73 77 81 85 89 92 93 93 90 86 81 76 75 77 78 78 77 70 63 60 57 54 52 51 49 46
36 38 41 45 50 54 59 62 66 68 68 67 66 67 69 71 73 76 80 84 89 92 92 91 88 84 79 74 72 73 76 79 78 72 63 58 55 52 49 47 45 43 40
38 42 46 50 54 58 62 65 67 66 65 64 65 67 69 72 76 80 84 88 92 93 91 87 83 77 73 70 71 73 74 76 73 64 57 54 51 47 44 41 39 35 30
42 46 51 55 58 62 64 65 64 63 62 63 65 68 71 75 79 84 88 91 92 91 86 82 77 72 69 70 71 73 74 73 66 57 52 50 47 42 39 35 32 26 20
47 51 54 58 60 61 61 60 59 59 61 63 67 71 75 80 84 88 90 91 89 86 81 77 72 70 69 71 73 75 75 69 58 52 49 46 41 37 32 28 22 18 17
50 54 56 57 58 57 56 56 56 59 62 66 71 75 80 84 88 91 90 88 84 78 73 71 70 70 72 73 75 75 70 60 51 47 44 41 36 30 23 18 15 16 18
Wind_Direction
230 238 245 253 261 266 270 271 271 273 274 277 280 286 290 294 296 296 296 295 296 296 297 298 299 300 300 300 300 300 301 301 302 301 301 301 300 299 298 296 295 293 291
230 238 247 256 262 267 269 268 269 271 274 278 283 288 292 294 295 295 295 296 298 300 301 302 301 301 300 300 300 301 301 302 302 302 301 300 299 297 297 295 293 292 290
232 242 252 259 262 264 265 266 268 271 275 280 285 289 292 293 295 296 298 299 300 301 300 300 299 299 298 298 299 299 300 301 301 302 302 301 300 298 296 295 293 291 290
238 249 257 259 260 262 265 268 270 273 277 281 286 290 293 295 296 296 297 298 299 298 297 297 296 295 296 297 298 299 300 301 302 302 302 301 301 300 299 298 296 294 292
245 253 258 259 260 263 267 270 273 277 280 284 288 291 293 293 294 295 296 296 295 294 293 293 294 296 298 300 301 303 304 304 304 303 303 301 300 299 299 298 297 295 294
248 255 258 260 263 267 271 274 277 280 283 286 289 291 293 294 294 295 295 294 293 293 294 297 299 301 302 304 305 305 305 305 304 303 303 302 301 299 298 297 295 294 293
249 255 259 263 267 271 274 276 278 281 283 287 290 292 294 295 295 295 295 295 296 298 300 303 304 305 305 305 305 305 305 305 304 303 303 302 301 301 300 299 298 297 295
249 253 258 263 268 271 273 276 278 282 286 290 292 294 294 294 294 295 296 298 300 303 305 306 306 305 305 305 306 306 305 305 305 305 305 305 304 304 303 302 301 300 298
251 256 261 265 268 271 273 277 282 286 290 292 294 294 294 294 296 298 300 303 305 306 306 306 305 305 306 306 307 306 306 307 307 308 308 307 307 306 305 303 301 300 298
256 261 265 267 270 273 277 282 286 290 293 294 294 294 295 297 300 303 304 306 306 306 306 306 306 307 307 307 307 307 308 310 310 309 309 308 307 306 304 302 301 299 298
260 263 266 269 273 277 282 286 290 293 293 293 294 295 298 301 303 305 307 307 307 307 306 306 307 307 307 307 308 310 311 311 311 311 310 309 308 306 304 303 302 301 300
262 264 267 271 276 281 287 291 293 293 293 294 296 299 301 304 305 307 307 307 307 307 307 307 307 307 308 309 310 312 312 312 313 312 311 309 307 306 305 305 305 303 301
262 265 269 274 280 285 289 291 292 293 295 297 300 302 304 305 306 307 308 307 307 307 307 307 308 308 310 311 312 313 314 315 314 313 311 309 308 308 308 308 306 304 302
263 267 272 278 282 285 288 289 292 294 297 300 302 303 305 306 307 308 308 307 307 307 307 308 309 310 312 313 314 315 316 316 315 312 310 309 310 311 311 309 307 304 303
265 270 275 279 282 284 286 289 293 296 299 301 303 305 306 307 308 308 308 307 307 307 308 309 311 313 314 315 316 317 317 316 314 312 310 311 312 313 312 310 307 305 304
267 272 276 279 282 285 288 292 295 298 301 303 305 306 307 308 308 308 307 307 307 308 310 312 314 315 316 317 317 317 316 315 313 312 312 314 315 314 312 309 306 306 306
269 274 278 281 284 287 290 294 297 301 303 305 306 307 308 308 307 307 307 307 308 310 312 314 315 317 317 317 317 317 315 314 313 313 315 317 316 314 311 308 307 306 306
271 275 279 282 285 289 293 297 301 303 305 306 307 308 308 307 307 306 306 308 310 313 314 315 316 317 317 318 317 316 314 314 314 316 318 319 317 314 311 309 308 308 308
272 276 279 283 287 292 296 300 303 304 305 306 307 308 308 307 306 306 308 310 312 314 315 316 317 318 318 317 316 314 314 315 316 319 320 319 317 314 313 312 311 311 310
274 278 281 285 290 295 299 301 303 304 305 306 308 308 308 307 307 308 310 312 314 315 316 317 318 318 317 316 314 314 315 316 319 320 320 319 317 316 314 313 312 312 312
277 280 285 290 294 297 299 301 303 304 306 307 308 308 308 308 309 310 312 314 315 316 317 317 317 317 316 315 315 316 317 318 321 322 321 319 318 317 315 313 313 313 315
280 285 289 293 295 297 299 301 303 306 308 309 309 309 309 310 312 313 314 315 316 316 317 317 316 316 315 315 316 317 318 320 322 323 321 320 319 318 316 315 314 316 318
284 288 291 293 295 298 300 303 306 308 310 310 310 310 311 312 313 314 315 315 316 316 316 316 316 316 316 316 317 318 319 321 323 323 322 322 321 320 318 317 318 320 324
286 289 292 294 297 300 303 306 309 310 310 311 311 312 313 313 314 315 315 315 315 315 315 315 316 317 317 317 318 319 321 323 323 323 323 324 324 323 322 322 324 328 335
288 291 294 297 300 304 307 309 311 311 312 312 313 314 314 314 315 315 315 316 316 316 316 317 318 318 319 319 320 321 323 324 324 324 325 326 327 326 326 327 333 341 345
291 295 298 302 305 308 310 311 312 313 313 314 315 315 315 315 315 315 315 316 316 317 317 318 319 319 320 320 320 321 323 324 323 324 326 328 329 330 332 337 343 346 345
Height
5797 5798 5798 5799 5799 5798 5798 5797 5796 5795 5793 5792 5791 5789 5787 5784 5780 5777 5773 5770 5767 5765 5762 5759 5756 5752 5749 5745 5741 5737 5733 5729 5724 5720 5717 5714 5709 5703 5698 5693 5688 5682 5677
5792 5792 5793 5793 5793 5792 5792 5791 5790 5789 5788 5787 5785 5783 5780 5777 5773 5770 5767 5764 5761 5757 5754 5751 5747 5743 5739 5735 5731 5727 5723 5718 5712 5707 5702 5699 5697 5691 5684 5677 5671 5666 5660
5787 5787 5787 5787 5786 5786 5786 5785 5784 5783 5782 5780 5778 5776 5773 5769 5766 5763 5760 5756 5753 5750 5746 5742 5738 5734 5730 5726 5721 5716 5711 5706 5700 5693 5685 5679 5675 5672 5670 5663 5656 5649 5642
5782 5782 5781 5781 5781 5781 5781 5780 5779 5778 5776 5774 5771 5768 5765 5762 5759 5756 5752 5749 5745 5741 5737 5733 5729 5725 5720 5715 5709 5704 5698 5691 5685 5678 5670 5661 5652 5645 5642 5639 5631 5625 5619
5777 5776 5776 5775 5775 5775 5775 5775 5774 5772 5770 5767 5765 5762 5758 5755 5752 5748 5744 5741 5737 5732 5728 5724 5719 5714 5708 5702 5696 5689 5682 5675 5667 5659 5650 5642 5633 5624 5617 5613 5608 5599 5591
5771 5770 5770 5770 5770 5770 5770 5769 5768 5766 5763 5761 5758 5755 5751 5747 5744 5740 5736 5732 5727 5723 5718 5713 5708 5702 5696 5689 5682 5674 5666 5658 5649 5639 5629 5619 5610 5600 5591 5586 5582 5575 5569
5765 5764 5764 5764 5764 5765 5764 5763 5761 5759 5756 5753 5750 5747 5743 5739 5735 5731 5727 5722 5717 5713 5707 5702 5696 5689 5682 5675 5666 5658 5649 5640 5630 5620 5609 5598 5587 5575 5562 5552 5546 5542 5539
5758 5758 5758 5758 5758 5758 5757 5756 5754 5751 5749 5746 5742 5739 5735 5731 5727 5723 5718 5713 5708 5702 5696 5690 5683 5676 5667 5659 5650 5640 5631 5620 5610 5599 5587 5575 5562 5548 5533 5518 5505 5497 5497
5752 5752 5752 5752 5751 5750 5749 5748 5746 5743 5740 5737 5734 5730 5727 5723 5718 5713 5708 5703 5697 5690 5684 5676 5668 5660 5651 5641 5632 5622 5611 5600 5588 5576 5563 5550 5536 5522 5506 5490 5472 5455 5444
5746 5746 5745 5744 5743 5742 5741 5740 5738 5735 5732 5728 5725 5721 5717 5713 5708 5703 5697 5690 5684 5677 5669 5660 5651 5642 5633 5623 5613 5602 5591 5579 5566 5553 5540 5526 5511 5496 5480 5464 5448 5429 5409
5739 5738 5738 5737 5736 5735 5734 5732 5729 5726 5723 5720 5716 5712 5708 5702 5697 5691 5684 5677 5669 5661 5653 5644 5635 5625 5615 5604 5593 5582 5571 5558 5545 5530 5516 5500 5483 5468 5452 5436 5421 5406 5388
5732 5731 5731 5730 5729 5728 5726 5724 5721 5718 5714 5711 5707 5702 5697 5691 5685 5678 5670 5663 5654 5646 5637 5627 5617 5607 5596 5585 5574 5563 5551 5537 5522 5506 5490 5473 5456 5440 5425 5410 5396 5382 5367
5725 5725 5724 5723 5722 5720 5718 5716 5712 5709 5705 5701 5697 5691 5685 5679 5672 5664 5656 5648 5639 5630 5620 5610 5599 5589 5578 5566 5555 5543 5530 5514 5498 5480 5463 5447 5430 5416 5401 5387 5373 5359 5346
5719 5719 5718 5717 5715 5713 5710 5707 5704 5700 5696 5691 5686 5680 5673 5666 5659 5651 5642 5633 5624 5614 5604 5593 5582 5571 5559 5547 5534 5522 5507 5492 5475 5456 5439 5423 5408 5393 5379 5365 5351 5338 5327
5713 5712 5711 5709 5707 5705 5702 5699 5695 5690 5686 5680 5675 5668 5661 5653 5645 5637 5627 5618 5608 5598 5587 5576 5565 5552 5539 5526 5513 5500 5486 5469 5452 5435 5419 5403 5388 5373 5357 5343 5330 5318 5308
5706 5705 5703 5702 5699 5696 5693 5689 5685 5680 5675 5669 5663 5656 5648 5640 5631 5622 5612 5602 5592 5581 5570 5558 5546 5533 5520 5506 5492 5477 5462 5446 5429 5414 5400 5385 5369 5354 5340 5326 5313 5301 5289
5698 5697 5695 5693 5690 5687 5684 5679 5675 5670 5664 5658 5651 5643 5634 5625 5616 5606 5597 5587 5576 5565 5553 5541 5528 5515 5501 5487 5471 5455 5439 5423 5407 5393 5379 5365 5350 5334 5322 5311 5300 5289 5277
5690 5689 5686 5684 5681 5678 5674 5670 5665 5659 5652 5645 5637 5629 5620 5610 5601 5591 5582 5571 5560 5548 5536 5524 5511 5498 5483 5466 5450 5435 5421 5406 5390 5374 5359 5344 5331 5316 5304 5294 5285 5275 5265
5682 5680 5678 5676 5673 5669 5664 5659 5654 5647 5640 5632 5623 5614 5605 5595 5586 5577 5567 5556 5545 5532 5519 5506 5493 5479 5463 5446 5430 5415 5402 5389 5375 5359 5343 5326 5313 5300 5287 5276 5268 5261 5253
5673 5672 5670 5667 5664 5659 5654 5649 5642 5634 5626 5617 5608 5599 5589 5580 5571 5562 5552 5540 5528 5515 5502 5488 5473 5458 5443 5427 5412 5395 5382 5371 5359 5345 5329 5312 5298 5285 5273 5262 5253 5246 5240
5665 5663 5661 5658 5654 5649 5643 5636 5629 5620 5611 5602 5592 5583 5574 5565 5556 5546 5535 5523 5511 5498 5485 5470 5454 5439 5424 5409 5395 5380 5365 5352 5340 5328 5314 5300 5286 5273 5262 5251 5242 5234 5227
5657 5654 5651 5647 5643 5637 5630 5623 5615 5606 5596 5587 5578 5569 5560 5550 5540 5530 5518 5505 5492 5479 5465 5451 5437 5421 5406 5393 5379 5366 5351 5336 5322 5310 5298 5286 5274 5263 5252 5242 5234 5226 5219
5647 5644 5641 5636 5631 5624 5617 5609 5600 5590 5581 5572 5563 5554 5545 5535 5524 5512 5500 5487 5473 5458 5445 5431 5419 5405 5391 5378 5365 5353 5339 5325 5310 5297 5285 5274 5263 5252 5243 5235 5226 5219 5213
5637 5634 5629 5624 5617 5610 5602 5593 5584 5575 5567 5559 5550 5541 5531 5521 5509 5496 5482 5468 5452 5438 5425 5412 5400 5389 5376 5363 5350 5337 5325 5312 5298 5286 5275 5265 5254 5244 5235 5228 5221 5214 5209
5626 5622 5616 5610 5603 5595 5587 5579 5571 5563 5554 5546 5537 5527 5516 5505 5492 5479 5463 5448 5433 5417 5404 5392 5381 5370 5360 5347 5333 5319 5307 5295 5284 5274 5266 5256 5247 5238 5230 5223 5217 5212 5207
5614 5608 5602 5595 5588 5581 5573 5566 5558 5550 5542 5533 5523 5512 5500 5487 5474 5460 5447 5431 5416 5403 5388 5375 5364 5354 5343 5330 5318 5306 5294 5283 5274 5265 5257 5249 5240 5232 5226 5221 5216 5211 5207